AUA66H LOWW-EPWA

Flight info

Callsign AUA66H
Flight time 1h 8m
Altitude 23000
Route KOXER Z649 XENAK M985 NIT/N0426F330 DCT MEBAN DCT ORTEB/N0422F320 DCT KONZI DCT LOGDA
Aircraft E195/M-SDE3GILORVW/S

Departure

Time 2026-04-24 15:52
Airport Vienna International Airport (LOWW)

Arrival

Time 2026-04-24 17:00
Airport Warsaw Chopin Airport (EPWA)
Time Latitude Longitude Altitude Speed Heading
2026-04-24 15:23 48.11640 16.57045 608 ft 0 kts 26°
2026-04-24 15:43 48.11647 16.57050 620 ft 5 kts 26°
2026-04-24 15:44 48.11684 16.57120 608 ft 11 kts 102°
2026-04-24 15:44 48.11650 16.57231 615 ft 13 kts 116°
2026-04-24 15:44 48.11595 16.57402 617 ft 21 kts 115°
2026-04-24 15:44 48.11536 16.57574 618 ft 14 kts 132°
2026-04-24 15:45 48.11445 16.57623 617 ft 15 kts 161°
2026-04-24 15:45 48.11345 16.57669 614 ft 15 kts 165°
2026-04-24 15:45 48.11238 16.57712 614 ft 16 kts 164°
2026-04-24 15:45 48.11108 16.57767 612 ft 23 kts 164°
2026-04-24 15:46 48.10950 16.57832 623 ft 24 kts 166°
2026-04-24 15:46 48.10790 16.57901 612 ft 24 kts 164°
2026-04-24 15:46 48.10627 16.57970 612 ft 25 kts 165°
2026-04-24 15:46 48.10461 16.58041 619 ft 25 kts 165°
2026-04-24 15:47 48.10292 16.58111 612 ft 25 kts 164°
2026-04-24 15:47 48.10120 16.58184 613 ft 26 kts 168°
2026-04-24 15:47 48.09947 16.58258 610 ft 26 kts 164°
2026-04-24 15:47 48.09780 16.58328 616 ft 24 kts 163°
2026-04-24 15:48 48.09678 16.58374 612 ft 10 kts 158°
2026-04-24 15:48 48.09636 16.58456 611 ft 11 kts 96°
2026-04-24 15:48 48.09673 16.58549 620 ft 11 kts 26°
2026-04-24 15:48 48.09694 16.58558 617 ft 0 kts 11°
2026-04-24 15:50 48.09726 16.58567 608 ft 10 kts 10°
2026-04-24 15:50 48.09823 16.58591 609 ft 16 kts
2026-04-24 15:51 48.09934 16.58615 609 ft 17 kts
2026-04-24 15:51 48.10031 16.58641 619 ft 8 kts 345°
2026-04-24 15:51 48.10101 16.58612 610 ft 36 kts 344°
2026-04-24 15:51 48.10576 16.58413 619 ft 104 kts 346°
2026-04-24 15:52 48.11470 16.58048 683 ft 155 kts 345°
2026-04-24 15:52 48.12566 16.57740 1464 ft 162 kts 350°
2026-04-24 15:52 48.13739 16.58138 2053 ft 193 kts 21°
2026-04-24 15:52 48.14969 16.59255 2479 ft 218 kts 35°
2026-04-24 15:53 48.15955 16.61062 3319 ft 231 kts 60°
2026-04-24 15:53 48.16464 16.63441 3937 ft 253 kts 76°
2026-04-24 15:53 48.16558 16.66199 4373 ft 278 kts 90°
2026-04-24 15:53 48.16362 16.69115 5142 ft 284 kts 96°
2026-04-24 15:54 48.16080 16.72070 5933 ft 290 kts 96°
2026-04-24 15:54 48.15787 16.75075 6659 ft 294 kts 96°
2026-04-24 15:54 48.15494 16.78117 7406 ft 296 kts 95°
2026-04-24 15:54 48.15201 16.81170 8151 ft 297 kts 95°
2026-04-24 15:55 48.14900 16.84248 8861 ft 301 kts 95°
2026-04-24 15:55 48.14592 16.87353 9571 ft 304 kts 94°
2026-04-24 15:55 48.14270 16.90505 10183 ft 312 kts 95°
2026-04-24 15:55 48.13933 16.93805 10515 ft 329 kts 95°
2026-04-24 15:56 48.13566 16.97228 11098 ft 335 kts 96°
2026-04-24 15:56 48.13190 17.00678 11836 ft 337 kts 96°
2026-04-24 15:56 48.12808 17.04153 12581 ft 339 kts 96°
2026-04-24 15:56 48.12465 17.07655 13296 ft 341 kts 91°
2026-04-24 15:57 48.12374 17.11211 13998 ft 343 kts 87°
2026-04-24 15:57 48.12356 17.14791 14656 ft 346 kts 87°
2026-04-24 15:57 48.12291 17.18404 15318 ft 349 kts 89°
2026-04-24 15:57 48.12194 17.22052 15942 ft 352 kts 89°
2026-04-24 15:58 48.12085 17.25733 16557 ft 355 kts 89°
2026-04-24 15:58 48.12027 17.29437 17143 ft 357 kts 83°
2026-04-24 15:58 48.12589 17.33029 17739 ft 354 kts 68°
2026-04-24 15:58 48.13443 17.36499 18329 ft 357 kts 66°
2026-04-24 15:59 48.14329 17.39992 18853 ft 360 kts 66°
2026-04-24 15:59 48.15207 17.43522 19402 ft 364 kts 66°
2026-04-24 15:59 48.16081 17.47090 19967 ft 367 kts 66°
2026-04-24 15:59 48.16958 17.50686 20564 ft 370 kts 66°
2026-04-24 16:00 48.17845 17.54321 21092 ft 374 kts 66°
2026-04-24 16:00 48.18726 17.58016 21626 ft 377 kts 68°
2026-04-24 16:00 48.19554 17.61764 22133 ft 381 kts 69°
2026-04-24 16:00 48.20372 17.65554 22607 ft 384 kts 68°
2026-04-24 16:01 48.21208 17.69373 23074 ft 387 kts 68°
2026-04-24 16:01 48.22055 17.73223 23542 ft 390 kts 68°
2026-04-24 16:01 48.22909 17.77087 23950 ft 392 kts 68°
2026-04-24 16:01 48.23765 17.80968 24374 ft 393 kts 68°
2026-04-24 16:02 48.24626 17.84876 24818 ft 395 kts 68°
2026-04-24 16:02 48.25487 17.88792 25264 ft 396 kts 68°
2026-04-24 16:02 48.26350 17.92723 25712 ft 398 kts 68°
2026-04-24 16:02 48.27216 17.96675 26147 ft 399 kts 68°
2026-04-24 16:03 48.28081 18.00636 26547 ft 401 kts 68°
2026-04-24 16:03 48.29144 18.04492 26910 ft 397 kts 55°
2026-04-24 16:03 48.30905 18.07614 27266 ft 391 kts 39°
2026-04-24 16:03 48.32935 18.10319 27645 ft 391 kts 38°
2026-04-24 16:04 48.34984 18.13033 27981 ft 393 kts 38°
2026-04-24 16:04 48.37033 18.15771 28323 ft 395 kts 38°
2026-04-24 16:04 48.39086 18.18518 28700 ft 396 kts 38°
2026-04-24 16:04 48.41144 18.21273 29138 ft 395 kts 38°
2026-04-24 16:05 48.45190 18.26715 30214 ft 390 kts 38°
2026-04-24 16:05 48.47209 18.29433 30645 ft 388 kts 38°
2026-04-24 16:06 48.51208 18.34816 31458 ft 384 kts 38°
2026-04-24 16:06 48.53197 18.37494 31814 ft 383 kts 38°
2026-04-24 16:06 48.57149 18.42819 32566 ft 378 kts 37°
2026-04-24 16:07 48.59107 18.45461 32943 ft 376 kts 37°
2026-04-24 16:07 48.61011 18.48038 33059 ft 361 kts 37°
2026-04-24 16:07 48.64598 18.52861 32988 ft 328 kts 37°
2026-04-24 16:08 48.66262 18.55102 32947 ft 312 kts 36°
2026-04-24 16:08 48.69389 18.59307 33041 ft 298 kts 36°
2026-04-24 16:09 48.72569 18.63580 33081 ft 311 kts 36°
2026-04-24 16:09 48.74190 18.65774 33106 ft 313 kts 37°
2026-04-24 16:09 48.75820 18.67982 32967 ft 315 kts 36°
2026-04-24 16:09 48.77442 18.70178 32997 ft 311 kts 36°
2026-04-24 16:11 48.85521 18.81156 32992 ft 312 kts 36°
2026-04-24 16:11 48.88750 18.85556 32997 ft 312 kts 36°
2026-04-24 16:12 48.93583 18.92156 33004 ft 311 kts 36°
2026-04-24 16:13 48.98388 18.98734 33012 ft 311 kts 37°
2026-04-24 16:14 49.04804 19.07550 33000 ft 311 kts 37°
2026-04-24 16:14 49.09616 19.14182 33007 ft 310 kts 36°
2026-04-24 16:15 49.14410 19.20811 33014 ft 310 kts 37°
2026-04-24 16:16 49.19213 19.27464 33017 ft 310 kts 36°
2026-04-24 16:17 49.27196 19.38565 33004 ft 311 kts 36°
2026-04-24 16:18 49.33565 19.47460 33009 ft 309 kts 37°
2026-04-24 16:19 49.38329 19.54134 33025 ft 309 kts 36°
2026-04-24 16:20 49.43088 19.60823 33021 ft 309 kts 36°
2026-04-24 16:20 49.47837 19.67515 33009 ft 308 kts 36°
2026-04-24 16:21 49.52572 19.74198 33006 ft 308 kts 36°
2026-04-24 16:22 49.55703 19.78629 33012 ft 307 kts 36°
2026-04-24 16:22 49.60418 19.85316 33004 ft 306 kts 36°
2026-04-24 16:23 49.63552 19.89770 33013 ft 307 kts 36°
2026-04-24 16:24 49.68251 19.96465 33010 ft 307 kts 36°
2026-04-24 16:24 49.71381 20.00933 33009 ft 306 kts 36°
2026-04-24 16:25 49.74500 20.05396 33008 ft 305 kts 36°
2026-04-24 16:25 49.77616 20.09862 33014 ft 305 kts 36°
2026-04-24 16:26 49.82282 20.16561 32997 ft 305 kts 36°
2026-04-24 16:27 49.86934 20.23265 33004 ft 304 kts 36°
2026-04-24 16:27 49.90026 20.27728 33005 ft 304 kts 36°
2026-04-24 16:28 49.93090 20.32159 32997 ft 303 kts 36°
2026-04-24 16:28 49.97708 20.38852 32996 ft 302 kts 36°
2026-04-24 16:29 50.00774 20.43309 32991 ft 302 kts 36°
2026-04-24 16:30 50.06893 20.52224 32991 ft 301 kts 36°
2026-04-24 16:30 50.08489 20.54288 33002 ft 295 kts 27°
2026-04-24 16:30 50.10268 20.55817 33010 ft 290 kts 18°
2026-04-24 16:31 50.12165 20.56798 33021 ft 287 kts
2026-04-24 16:31 50.14132 20.57237 33001 ft 285 kts
2026-04-24 16:31 50.16111 20.57507 32976 ft 284 kts
2026-04-24 16:31 50.18078 20.57783 32978 ft 284 kts
2026-04-24 16:32 50.19381 20.57945 32982 ft 284 kts
2026-04-24 16:32 50.22016 20.58228 32977 ft 283 kts
2026-04-24 16:32 50.23987 20.58426 32984 ft 283 kts
2026-04-24 16:32 50.25951 20.58619 32980 ft 283 kts
2026-04-24 16:33 50.27922 20.58811 32978 ft 283 kts
2026-04-24 16:33 50.29888 20.59003 32982 ft 283 kts
2026-04-24 16:33 50.31187 20.59131 32983 ft 283 kts
2026-04-24 16:33 50.33151 20.59323 32969 ft 283 kts
2026-04-24 16:34 50.35111 20.59512 32988 ft 282 kts
2026-04-24 16:34 50.37074 20.59704 32975 ft 282 kts
2026-04-24 16:34 50.39031 20.59896 32975 ft 282 kts
2026-04-24 16:34 50.40989 20.60089 32977 ft 282 kts
2026-04-24 16:35 50.42944 20.60281 32975 ft 281 kts
2026-04-24 16:35 50.44896 20.60473 32973 ft 281 kts
2026-04-24 16:35 50.46854 20.60665 32981 ft 281 kts
2026-04-24 16:35 50.48806 20.60857 32976 ft 281 kts
2026-04-24 16:36 50.50757 20.61049 32979 ft 281 kts
2026-04-24 16:36 50.52705 20.61241 32903 ft 283 kts
2026-04-24 16:36 50.54697 20.61437 32538 ft 285 kts
2026-04-24 16:36 50.56658 20.61631 32425 ft 281 kts
2026-04-24 16:37 50.58617 20.61833 32103 ft 284 kts
2026-04-24 16:37 50.60596 20.62048 31733 ft 286 kts
2026-04-24 16:37 50.62579 20.62263 31356 ft 287 kts
2026-04-24 16:37 50.64580 20.62478 30975 ft 287 kts
2026-04-24 16:38 50.66570 20.62691 30594 ft 287 kts
2026-04-24 16:38 50.68559 20.62904 30213 ft 288 kts
2026-04-24 16:38 50.70566 20.63118 29811 ft 289 kts
2026-04-24 16:38 50.72566 20.63333 29456 ft 288 kts
2026-04-24 16:39 50.74574 20.63549 29063 ft 290 kts
2026-04-24 16:39 50.76602 20.63766 28685 ft 292 kts
2026-04-24 16:39 50.78641 20.63985 28267 ft 294 kts
2026-04-24 16:39 50.80673 20.64203 27901 ft 292 kts
2026-04-24 16:40 50.82687 20.64421 27510 ft 290 kts
2026-04-24 16:40 50.84727 20.64640 27148 ft 303 kts
2026-04-24 16:40 50.86916 20.64870 26738 ft 324 kts
2026-04-24 16:40 50.89203 20.65115 26272 ft 332 kts
2026-04-24 16:41 50.91509 20.65366 25824 ft 334 kts
2026-04-24 16:41 50.93828 20.65621 25386 ft 333 kts
2026-04-24 16:41 50.96133 20.65872 24948 ft 331 kts
2026-04-24 16:41 50.98428 20.66120 24511 ft 330 kts
2026-04-24 16:42 51.00707 20.66368 24075 ft 328 kts
2026-04-24 16:42 51.02974 20.66613 23652 ft 326 kts
2026-04-24 16:42 51.05241 20.66860 23188 ft 324 kts
2026-04-24 16:42 51.07478 20.67104 22781 ft 321 kts
2026-04-24 16:43 51.09673 20.67343 22355 ft 320 kts
2026-04-24 16:43 51.11891 20.67584 21942 ft 319 kts
2026-04-24 16:43 51.14104 20.67824 21520 ft 318 kts
2026-04-24 16:43 51.16303 20.68064 21103 ft 317 kts
2026-04-24 16:44 51.18501 20.68305 20685 ft 315 kts
2026-04-24 16:44 51.20679 20.68542 20262 ft 314 kts
2026-04-24 16:44 51.22859 20.68781 19846 ft 313 kts
2026-04-24 16:44 51.25023 20.69017 19438 ft 311 kts
2026-04-24 16:45 51.27191 20.69335 18625 ft 320 kts
2026-04-24 16:45 51.29331 20.70387 17855 ft 318 kts 16°
2026-04-24 16:45 51.31382 20.71545 17509 ft 309 kts 16°
2026-04-24 16:45 51.33390 20.72661 17100 ft 303 kts 16°
2026-04-24 16:46 51.35366 20.73755 16711 ft 299 kts 16°
2026-04-24 16:46 51.37329 20.74836 16317 ft 298 kts 16°
2026-04-24 16:46 51.39292 20.75918 15918 ft 299 kts 16°
2026-04-24 16:46 51.41255 20.77002 15522 ft 298 kts 16°
2026-04-24 16:47 51.43208 20.78079 15130 ft 296 kts 16°
2026-04-24 16:47 51.45152 20.79154 14736 ft 295 kts 16°
2026-04-24 16:47 51.47086 20.80223 14345 ft 293 kts 16°
2026-04-24 16:47 51.49011 20.81285 13950 ft 291 kts 16°
2026-04-24 16:48 51.50922 20.82341 13555 ft 289 kts 16°
2026-04-24 16:48 51.52812 20.83386 13185 ft 286 kts 16°
2026-04-24 16:48 51.54691 20.84427 12804 ft 285 kts 16°
2026-04-24 16:48 51.56565 20.85462 12425 ft 284 kts 16°
2026-04-24 16:49 51.58433 20.86493 12050 ft 283 kts 16°
2026-04-24 16:49 51.60294 20.87522 11677 ft 283 kts 16°
2026-04-24 16:49 51.62149 20.88548 11305 ft 281 kts 16°
2026-04-24 16:49 51.63990 20.89569 11008 ft 278 kts 16°
2026-04-24 16:50 51.65203 20.90239 10738 ft 279 kts 16°
2026-04-24 16:50 51.67652 20.91592 10248 ft 277 kts 16°
2026-04-24 16:50 51.69465 20.92597 9878 ft 276 kts 16°
2026-04-24 16:50 51.71287 20.93604 9497 ft 274 kts 16°
2026-04-24 16:51 51.73081 20.94599 9156 ft 272 kts 16°
2026-04-24 16:51 51.74876 20.95596 8793 ft 272 kts 16°
2026-04-24 16:51 51.76657 20.96580 8422 ft 268 kts 16°
2026-04-24 16:51 51.78406 20.97550 8060 ft 264 kts 16°
2026-04-24 16:52 51.80131 20.98510 7719 ft 260 kts 15°
2026-04-24 16:52 51.81807 20.99441 7366 ft 251 kts 15°
2026-04-24 16:52 51.83426 21.00340 7065 ft 242 kts 15°
2026-04-24 16:52 51.84988 21.01211 6727 ft 232 kts 15°
2026-04-24 16:53 51.86487 21.02041 6447 ft 226 kts 15°
2026-04-24 16:53 51.87973 21.02860 6139 ft 225 kts 15°
2026-04-24 16:53 51.89451 21.03681 5842 ft 224 kts 15°
2026-04-24 16:53 51.90920 21.04496 5534 ft 223 kts 15°
2026-04-24 16:54 51.92382 21.05304 5258 ft 222 kts 15°
2026-04-24 16:54 51.93833 21.06112 4941 ft 218 kts 15°
2026-04-24 16:54 51.95235 21.06895 4670 ft 207 kts 15°
2026-04-24 16:54 51.96543 21.07628 4411 ft 192 kts 15°
2026-04-24 16:55 51.97767 21.08309 4159 ft 185 kts 15°
2026-04-24 16:55 51.98982 21.08983 3915 ft 179 kts 14°
2026-04-24 16:55 52.00141 21.09584 3678 ft 171 kts
2026-04-24 16:55 52.01310 21.09481 3414 ft 165 kts 350°
2026-04-24 16:56 52.02407 21.09087 3217 ft 161 kts 337°
2026-04-24 16:56 52.03384 21.08204 3032 ft 161 kts 330°
2026-04-24 16:56 52.04368 21.07342 2837 ft 162 kts 334°
2026-04-24 16:56 52.05376 21.06516 2633 ft 163 kts 332°
2026-04-24 16:57 52.06369 21.05631 2424 ft 162 kts 332°
2026-04-24 16:57 52.07318 21.04806 2191 ft 148 kts 333°
2026-04-24 16:57 52.08170 21.04062 2004 ft 134 kts 333°
2026-04-24 16:57 52.08954 21.03378 1844 ft 122 kts 333°
2026-04-24 16:58 52.09693 21.02738 1683 ft 121 kts 332°
2026-04-24 16:58 52.10437 21.02082 1510 ft 123 kts 332°
2026-04-24 16:58 52.11199 21.01416 1334 ft 128 kts 333°
2026-04-24 16:58 52.12005 21.00719 1163 ft 134 kts 332°
2026-04-24 16:59 52.12832 20.99995 989 ft 133 kts 331°
2026-04-24 16:59 52.13649 20.99249 811 ft 136 kts 331°
2026-04-24 16:59 52.15340 20.97781 469 ft 140 kts 331°
2026-04-24 17:00 52.16180 20.97052 365 ft 128 kts 330°
2026-04-24 17:00 52.17203 20.96250 363 ft 30 kts 355°
2026-04-24 17:00 52.17332 20.96245 366 ft 11 kts
2026-04-24 17:01 52.17376 20.96260 360 ft 7 kts 28°
2026-04-24 17:01 52.17418 20.96356 360 ft 12 kts 62°
2026-04-24 17:02 52.17464 20.96567 365 ft 8 kts 123°
2026-04-24 17:02 52.17402 20.96628 363 ft 13 kts 152°
2026-04-24 17:02 52.17327 20.96708 360 ft 10 kts 124°
2026-04-24 17:02 52.17330 20.96792 360 ft 7 kts 81°
2026-04-24 17:03 52.17337 20.96866 360 ft 0 kts 81°